This demonstration page uses our WeatherBlox Daily Observations layout. Learn more.

Left ArrowRight Arrow

Hourly Observations for September 9, 2015

Temp ( °F °C ) Dew Point ( °F °C ) Humidity (%) Winds ( mph kmh ) Pressure ( in mb ) Visibility ( mi km ) Precip ( " mm )
12:51 am 00:51 Clear 78 25.6 56 13.3 47 47 NNW 10 17 29.82 1010 10 16.0934 0 0
1:51 am 01:51 Mostly Clear 78 25.6 57 13.9 48 48 WNW 5 7 29.82 1010 10 16.0934 0 0
2:51 am 02:51 Partly Cloudy 74 23.3 60 15.6 62 62 SE 3 6 29.82 1010 10 16.0934 0 0
3:51 am 03:51 Mostly Cloudy 73 22.8 60 15.6 64 64 Calm 29.82 1010 10 16.0934 0 0
4:51 am 04:51 Clear 73 22.8 60 15.6 64 64 SSE 5 7 29.84 1010 10 16.0934 0 0
5:51 am 05:51 Clear 73 22.8 59 15 62 62 Calm 29.84 1010 10 16.0934 0 0
6:51 am 06:51 Mostly Sunny 74 23.3 60 15.6 62 62 ENE 3 6 29.87 1011 10 16.0934 0 0
7:51 am 07:51 Sunny 77 25 60 15.6 56 56 Calm 29.88 1012 10 16.0934 0 0
8:51 am 08:51 Sunny 81 27.2 60 15.6 49 49 SW 5 7 29.86 1011 10 16.0934 0 0
9:51 am 09:51 Sunny 87 30.6 58 14.4 37 37 VRB 5 7 29.85 1011 10 16.0934 0 0
10:51 am 10:51 Sunny 87 30.6 58 14.4 37 37 W 10 17 29.84 1011 10 16.0934 0 0
11:51 am 11:51 Sunny 88 31.1 55 12.8 33 33 W 8 13 29.82 1010 10 16.0934 0 0
12:51 pm 12:51 Sunny 92 33.3 54 12.2 28 28 W 7 11 29.79 1009 10 16.0934 0 0
1:51 pm 13:51 Sunny 93 33.9 53 11.7 26 26 W 8 13 29.75 1008 10 16.0934 0 0
2:51 pm 14:51 Sunny 94 34.4 52 11.1 24 24 SSW 7 11 29.73 1007 10 16.0934 0 0
3:51 pm 15:51 Sunny 94 34.4 51 10.6 23 23 W 7 11 29.72 1006 10 16.0934 0 0
4:51 pm 16:51 Sunny 93 33.9 52 11.1 25 25 WNW 8 13 29.72 1006 10 16.0934 0 0
5:51 pm 17:51 Sunny 91 32.8 53 11.7 27 27 W 7 11 29.73 1007 10 16.0934 0 0
6:51 pm 18:51 Cloudy 89 31.7 53 11.7 29 29 ENE 13 20 29.75 1008 10 16.0934 0 0
7:48 pm 19:48 Clear with Nearby Thunderstorms 84 29 57 14 40 40 SW 12 19 29.74 1007 10 16.0934 0 0
7:51 pm 19:51 Clear with Nearby Thunderstorms 85 29.4 57 13.9 39 39 SW 10 17 29.79 1009 10 16.0934 0 0
8:03 pm 20:03 Clear 85 29.4 57 13.9 39 39 WSW 7 11 29.74 1007 10 16.0934 0 0
8:51 pm 20:51 Partly Cloudy 82 27.8 61 16.1 49 49 SW 7 11 29.8 1009 10 16.0934 0 0
9:51 pm 21:51 Mostly Clear 81 27.2 62 16.7 53 53 S 7 11 29.8 1009 10 16.0934 0 0
10:51 pm 22:51 Partly Cloudy 82 27.8 58 14.4 44 44 Calm 29.82 1010 10 16.0934 0 0
11:51 pm 23:51 Mostly Clear 82 27.8 58 14.4 44 44 Calm 29.84 1010 10 16.0934 0 0

Powered by AerisWeather